Dewpoint
62 63 61 59 59 57 57 58 60 60 62 63 64 63 63 64 66 67 67 70 72 73 74 75 74 73 73 72 73 73 73 72 71 70 70 68 68 69 68 66 66 68 65 64 67 67 69 70 69 68 69 70 71 72 73 75 76 73 75 77 76 75 76
62 63 62 60 59 58 58 60 61 61 63 64 64 66 63 64 66 67 69 71 71 72 73 73 74 73 73 73 72 73 74 73 72 72 70 70 70 71 69 68 67 68 69 67 67 69 70 70 71 70 70 71 71 72 72 74 75 76 74 76 75 76 76
62 64 63 61 60 58 59 58 61 61 63 63 63 63 63 66 67 69 69 69 71 71 71 72 74 72 72 73 73 73 73 72 72 71 70 68 69 68 69 70 68 66 66 67 69 67 69 70 72 71 71 70 68 70 72 73 75 74 75 75 75 74 76
63 64 67 68 63 62 61 60 61 62 61 62 63 62 63 67 67 69 69 69 70 69 70 69 71 70 70 72 72 73 73 73 72 70 68 68 68 68 69 70 70 68 66 67 66 68 66 70 69 72 72 71 71 70 71 72 72 74 74 75 74 74 76
64 64 68 67 62 61 60 61 61 63 63 64 66 66 64 65 66 67 68 68 66 67 67 67 67 68 70 70 70 70 72 72 72 71 70 69 70 70 69 68 68 68 68 68 69 70 71 71 69 71 72 73 71 70 71 72 72 74 75 75 75 74 73
62 64 65 68 67 64 62 62 63 62 63 64 66 66 64 65 65 64 67 67 66 67 68 67 66 67 68 68 68 68 71 72 73 72 70 70 70 69 69 69 68 69 68 69 69 69 70 71 70 69 69 69 68 67 68 70 71 71 73 74 74 72 70
64 64 65 68 69 70 67 65 62 62 63 65 66 66 66 65 67 67 68 68 69 70 70 68 66 66 68 68 69 69 69 69 71 70 70 69 69 70 70 70 70 69 69 71 70 70 69 70 71 70 70 69 70 67 69 73 73 72 73 74 75 74 74
64 65 65 67 69 70 69 67 64 63 64 64 66 66 67 66 68 69 69 69 70 71 71 71 67 68 70 70 68 68 68 69 68 70 70 68 67 69 68 68 70 71 71 69 71 71 69 71 69 70 69 69 69 70 69 73 75 72 72 74 74 74 71
65 66 66 65 68 69 69 70 67 64 65 66 68 67 68 68 69 69 70 71 70 71 72 70 68 68 70 71 70 69 68 68 69 69 69 68 66 65 65 66 68 70 70 68 68 70 70 70 70 71 71 70 70 72 71 73 73 73 72 73 74 74 73
66 65 66 66 68 69 70 69 70 69 66 67 67 67 68 70 70 71 71 72 71 71 72 71 71 70 72 73 72 69 68 68 68 67 67 67 66 65 64 64 65 68 68 68 68 68 71 70 71 72 74 71 72 72 73 72 72 72 72 73 74 74 74
65 66 66 66 67 67 68 68 66 67 70 69 68 69 69 70 71 71 71 72 72 72 72 72 72 72 72 72 72 71 69 67 67 68 68 67 66 65 64 64 64 66 68 68 67 68 69 71 72 72 74 71 71 72 72 72 72 72 71 71 72 73 72
65 65 66 66 66 66 67 67 67 68 70 71 70 68 68 69 70 71 72 72 73 72 73 73 73 72 71 72 72 73 72 69 67 68 68 68 67 66 65 65 65 65 66 67 67 68 68 70 71 70 73 73 71 71 72 73 72 73 73 71 71 72 72
64 65 65 66 66 67 67 68 68 68 68 68 70 71 71 72 72 71 71 72 73 73 72 73 74 74 73 73 72 72 72 70 70 68 68 69 69 67 67 66 66 65 64 66 67 66 67 68 70 71 71 72 71 69 71 73 72 74 75 74 73 73 73
64 65 65 66 66 66 67 67 68 67 68 68 69 69 69 69 70 70 70 71 72 73 73 73 74 74 74 74 73 72 71 69 69 69 70 71 72 72 70 67 67 67 67 67 67 65 65 67 67 69 70 70 71 70 71 72 73 75 76 75 73 72 72
64 64 65 64 64 64 64 65 66 67 68 68 69 69 69 68 69 70 71 70 72 71 71 72 74 74 74 74 74 73 73 73 74 74 73 74 74 74 74 73 71 69 69 70 68 65 66 66 67 68 69 70 70 71 70 69 71 72 73 74 74 74 72
62 63 62 63 63 63 63 64 64 65 66 66 66 67 68 69 69 69 70 70 71 71 72 73 72 73 74 72 72 73 74 75 75 75 74 75 75 75 75 75 74 71 69 69 69 69 69 69 69 68 69 69 70 71 70 69 71 74 76 76 74 73 71
61 61 61 61 62 62 62 63 63 64 64 65 66 66 66 67 69 70 71 71 71 72 72 72 73 72 74 74 72 73 75 76 75 75 74 75 75 75 75 75 74 74 73 71 70 70 71 69 68 68 68 68 69 70 70 70 72 76 69 70 72 73 72
60 60 60 61 61 61 61 61 62 63 63 64 64 65 66 66 68 69 70 71 71 71 71 71 72 72 73 75 75 75 75 76 76 75 75 75 75 76 75 73 73 74 73 73 71 73 70 69 70 71 68 67 68 68 68 69 74 69 68 69 69 73 73
59 59 59 59 59 60 60 61 61 63 63 64 64 64 65 67 67 68 69 70 71 72 72 71 71 71 72 73 75 75 75 76 76 76 76 76 75 75 75 74 74 73 73 73 73 71 73 72 72 71 69 68 69 68 68 67 71 67 67 67 67 68 73
58 58 58 59 59 59 60 61 61 62 62 63 63 64 65 66 67 67 69 70 71 71 71 71 72 73 73 73 74 74 75 76 75 75 75 75 74 74 74 74 73 74 74 74 73 73 73 74 72 70 72 72 71 71 70 70 71 66 66 66 66 66 70
57 57 57 58 59 58 59 60 61 61 61 61 62 63 64 65 65 66 67 67 68 69 70 70 70 71 72 72 73 74 73 74 74 73 74 74 74 73 73 72 72 74 73 74 73 73 72 73 71 72 72 71 70 72 71 70 63 64 65 65 65 66 69
56 56 56 56 57 58 58 58 60 60 60 61 61 62 63 64 66 66 66 67 67 67 68 68 68 69 70 70 71 71 73 74 73 72 73 73 73 72 72 72 72 71 73 72 71 71 70 71 72 72 72 72 72 73 72 71 62 61 62 63 64 67 71
54 54 55 56 54 54 56 57 58 59 59 60 60 61 62 64 65 66 66 66 66 66 66 66 66 67 67 67 68 70 71 72 72 72 73 72 71 71 72 71 71 72 72 71 71 72 72 71 72 72 73 72 72 72 72 71 64 59 59 60 61 66 72
55 54 53 54 55 53 55 56 55 57 57 57 57 58 61 63 64 64 64 65 66 65 65 65 65 66 66 66 66 67 68 70 70 70 70 70 70 70 71 71 71 71 71 71 70 69 69 70 71 72 72 72 71 71 72 72 67 60 59 59 61 67 72
54 52 52 53 53 52 51 55 55 56 57 57 57 58 58 61 62 61 62 63 64 64 64 64 64 65 65 66 66 65 65 66 66 66 66 67 68 69 70 70 70 70 70 70 70 69 70 71 71 72 71 71 72 71 72 72 67 57 57 58 60 68 72
55 52 51 51 51 52 54 55 53 51 52 53 54 56 57 56 58 61 60 60 62 62 63 64 65 65 65 65 65 66 65 64 64 64 64 64 65 65 65 67 70 70 70 70 70 70 71 71 72 72 72 71 73 72 73 73 70 61 54 55 57 60 70
51 51 51 50 52 53 49 50 49 49 51 54 55 52 54 55 57 59 61 60 60 60 61 63 64 64 64 65 65 65 65 65 65 64 64 65 65 65 66 66 66 68 69 69 69 70 70 70 71 71 71 71 71 71 70 69 68 62 53 53 54 57 62
50 48 48 52 53 51 46 43 45 47 49 53 54 53 53 56 57 58 59 58 57 57 58 59 61 61 61 62 62 63 63 64 65 65 64 65 65 65 66 66 67 67 68 69 69 69 69 69 70 69 67 67 67 67 67 66 65 66 56 54 53 53 56
53 53 52 51 49 46 43 42 41 42 46 49 53 55 55 55 58 58 59 59 59 57 58 58 59 59 58 59 59 61 61 62 64 64 63 63 64 64 66 66 67 68 68 69 68 68 68 68 67 65 64 63 63 64 65 65 64 61 63 56 53 52 53
54 55 54 51 51 48 44 44 41 40 43 46 51 55 57 57 58 58 59 61 61 60 60 60 59 59 58 58 57 57 59 60 62 64 64 63 64 65 65 66 67 67 68 68 67 66 66 65 65 64 63 61 61 62 62 62 63 61 59 60 56 54 52
51 50 51 53 53 54 52 48 46 44 45 46 49 53 56 56 58 59 59 60 61 61 60 59 58 57 56 57 56 55 56 59 61 63 63 62 64 64 64 64 64 64 65 65 65 64 63 63 63 62 62 60 60 61 62 62 62 62 61 59 59 57 55
51 50 48 48 52 52 52 51 49 46 46 48 47 49 53 53 55 58 59 59 58 59 59 59 59 59 57 56 55 54 52 53 54 57 60 61 62 63 62 62 62 62 63 64 63 64 63 62 62 61 61 61 61 60 61 60 59 60 60 60 59 59 57
52 52 51 52 54 53 52 51 51 52 52 52 50 47 46 50 50 56 58 58 56 57 60 59 59 59 57 56 54 55 55 53 51 50 54 57 59 60 61 61 63 61 62 62 61 61 62 61 61 61 61 61 61 60 61 60 61 59 58 59 57 56 57
53 54 56 58 58 57 56 54 54 53 53 54 53 52 49 48 51 54 56 56 58 59 60 60 59 56 57 55 55 55 54 54 56 53 50 52 54 54 55 56 56 56 58 59 60 60 60 60 59 59 58 58 59 60 60 61 61 56 53 54 54 54 54
55 57 58 58 58 59 58 58 56 55 55 55 56 55 54 52 51 54 57 58 59 60 60 60 60 60 59 57 57 57 57 55 55 52 51 51 53 53 55 54 54 55 54 55 55 57 59 58 58 58 57 57 57 57 55 55 53 54 49 53 48 50 51
55 56 57 58 58 58 58 59 58 57 56 56 56 57 56 56 55 54 53 58 60 60 60 60 59 58 56 56 55 55 54 55 53 55 53 50 50 51 52 52 47 51 57 55 52 47 43 45 57 58 59 59 58 56 54 52 54 47 43 41 41 42 43
54 55 57 57 56 57 57 58 58 59 58 58 57 56 57 57 57 56 54 55 57 58 59 59 58 56 55 56 54 54 55 53 54 56 57 56 54 53 53 51 54 43 44 50 49 45 41 40 41 44 46 57 58 55 49 49 46 41 41 41 41 41 42
54 55 56 57 56 57 57 57 58 57 57 58 58 58 58 56 57 58 55 57 55 55 56 57 57 56 54 54 55 56 56 53 56 57 56 57 58 58 56 55 55 56 44 42 46 44 42 41 41 41 42 44 48 58 58 51 46 42 41 41 41 42 42